sat.trackr.live / text

‹ back to catalog

ION SCV-019 (ASTOUNDIN*)

NORAD 68435 · 2026-067V

PAYLOAD ACTIVE UNKNOWN

§ Identity

Operator
Country
IT
Launch date
2026-03-30
Launch site
AFWTR
Launch vehicle
Mass (kg)
RCS (m²)

External: N2YO · Heavens-Above · Gunter

§ Orbital elements

Epoch: 2026-05-25T03:35:07.068768Z

Period
94.89 min
Inclination
97.4532°
Eccentricity
0.0003758
Mean motion
15.17610501 rev/d
Perigee alt
510.5 km
Apogee alt
515.7 km
Semi-major
6,891.2 km
B*
1.4006e-4
RAAN
103.9289°
Arg perigee
119.1328°
Mean anomaly
241.0282°
Rev number
844

§ Raw data

ION SCV-019 (ASTOUNDIN*)1 68435U 26067V   26145.14938737  .00002749  00000+0  14006-3 0  99922 68435  97.4532 103.9289 0003758 119.1328 241.0282 15.17610501  8440

JSON: /api/v1/satellites/68435 · /tle

For live sub-satellite position, see the globe view (requires WebGL).

§ Visibility from observer

Set your observer location to see the next 7 days of passes ≥ 10°. The values pass through the URL so the page stays shareable.

No JS? Fill the form by hand. The geolocation button needs JavaScript.

§ Radio — SatNOGS DB

ModeDescriptionDownlinkUplink
FM Mode S - Transmitter 2.248 GHz
FSK AX.100 Mode 5 Mode U - Transmitter 401.415 MHz

2 transmitters · refreshed weekly from db.satnogs.org